Theta_e
337 335 334 334 333 330 328 331 333 334 335 335 335 334 334 333 333 331 328 325 326 326 326 325 322 319 316 314 312 310 309 309 308 307 307 308 308 308 309 311 314 315 320 325 325 324 327 325 313 308 309 308 308 307 307 307 307 307 307 312 317 319 318 318 318 319 322 325 328 331 333 334 334 333 333 333 334 334 334 334 335 336 336 336 336
337 335 334 334 333 332 329 332 335 335 335 335 334 333 333 333 333 331 328 326 326 326 326 325 324 321 318 317 314 312 310 309 308 307 306 307 308 308 308 309 310 313 319 322 322 325 327 319 308 307 308 306 307 306 306 306 307 308 308 312 316 318 318 319 319 320 320 321 324 326 329 331 332 332 331 331 332 332 332 331 331 332 333 334 335
336 335 334 335 334 333 330 332 335 335 334 334 333 333 333 332 332 331 329 326 326 326 326 326 325 323 320 318 316 314 311 310 309 307 306 306 306 307 308 308 308 312 321 324 323 328 325 312 306 307 305 305 306 306 306 306 307 308 310 313 316 318 319 321 321 320 319 318 318 321 324 326 327 328 327 328 329 330 329 329 329 328 328 329 331
336 335 334 335 335 333 330 332 333 334 333 333 333 333 333 332 332 331 329 327 327 326 326 326 325 324 321 319 318 316 312 310 309 307 306 305 306 307 307 309 312 315 321 323 323 324 316 307 306 305 305 307 307 307 307 307 308 309 311 314 317 321 323 325 322 318 318 315 313 316 317 319 319 319 317 318 321 322 322 322 323 322 322 322 324
337 335 334 334 335 334 330 330 332 333 332 332 333 333 332 332 331 331 329 328 327 325 325 325 325 324 322 320 319 317 314 311 310 309 306 305 305 305 309 313 318 323 324 324 327 323 312 304 305 305 307 308 308 308 308 309 309 310 312 314 318 322 325 326 323 319 319 315 310 311 312 314 315 314 310 311 311 311 312 311 312 313 313 313 315
337 335 334 333 334 334 330 329 332 332 332 332 333 332 332 332 331 331 329 329 328 326 325 324 324 324 322 320 319 319 316 313 311 310 307 305 305 304 310 316 323 328 326 326 328 323 312 305 305 307 308 308 309 308 309 309 309 311 314 317 320 323 323 322 321 322 322 318 313 314 315 315 316 316 314 314 314 312 311 309 306 305 306 307 308
337 336 335 333 333 333 330 329 332 331 331 332 332 332 332 331 330 330 329 329 328 327 326 324 324 323 323 320 319 320 317 315 311 311 309 306 306 304 310 318 324 326 324 324 322 318 316 310 306 307 307 308 308 308 309 310 311 314 318 321 323 324 324 321 321 323 323 321 320 321 322 320 319 320 320 319 319 319 318 315 313 309 307 307 306
337 337 336 335 332 332 330 327 330 330 331 333 332 332 332 331 330 330 329 328 328 328 327 324 323 322 323 320 319 320 319 317 313 311 310 308 305 306 316 322 324 325 325 325 322 320 317 309 306 307 307 308 308 307 308 310 313 317 321 324 325 326 326 323 322 324 323 323 324 325 325 325 323 323 322 319 319 321 318 318 318 316 313 311 311
337 338 337 336 333 331 331 328 327 329 331 332 332 331 331 330 329 330 328 327 327 328 328 325 322 322 324 321 319 321 320 317 315 312 310 310 305 309 322 323 324 328 329 327 325 321 312 306 307 307 307 308 307 307 307 309 313 317 322 324 325 325 325 324 323 324 324 325 325 325 326 326 326 325 325 322 321 322 320 319 319 318 317 315 317
338 338 338 337 334 332 331 329 327 328 331 331 331 331 329 328 329 330 327 327 327 329 329 326 323 322 324 322 319 320 321 318 316 313 310 311 306 311 319 320 325 329 329 329 324 315 307 307 307 306 307 307 306 307 307 309 312 316 319 321 322 323 323 323 324 325 325 325 325 326 326 326 326 326 326 325 324 324 323 323 323 322 321 320 321
338 338 338 337 335 333 331 330 330 328 329 330 331 331 330 328 329 330 327 327 328 329 329 327 323 322 324 322 319 319 322 319 317 315 311 310 307 310 315 316 324 327 328 327 318 310 307 307 306 307 307 306 307 307 308 309 312 314 315 317 319 321 322 322 323 324 325 325 326 326 326 326 326 326 326 325 325 325 324 325 325 325 325 324 323
339 338 338 338 335 334 333 331 331 330 329 329 330 330 330 329 329 329 327 327 328 329 329 328 325 322 323 322 319 318 321 321 318 316 312 310 308 309 311 314 320 323 324 319 310 307 306 306 306 306 306 307 308 308 308 308 310 311 311 313 316 318 320 320 321 322 324 324 325 326 326 326 326 326 326 326 325 325 325 325 325 325 325 325 324
339 338 338 338 336 335 335 333 332 331 331 328 328 329 328 328 330 329 328 328 327 328 329 329 326 323 322 322 319 317 319 321 320 318 313 310 308 308 309 314 318 318 315 310 307 307 306 306 306 306 306 308 308 308 308 307 310 312 314 316 318 319 319 318 318 319 322 324 325 326 326 326 327 327 327 326 325 325 324 324 324 324 324 324 324
339 338 338 338 336 335 336 335 334 334 333 331 329 329 327 327 329 329 328 328 327 327 328 328 327 324 321 320 319 316 317 321 321 319 315 311 309 308 307 310 312 310 308 306 306 306 306 306 305 306 307 307 307 308 306 308 314 317 320 321 321 321 320 318 318 317 318 321 323 324 326 326 327 327 326 326 325 324 323 323 323 323 323 323 322
337 338 338 337 337 336 336 336 335 335 335 334 331 329 326 325 327 329 328 327 327 327 327 327 327 325 323 319 318 317 317 320 321 320 316 312 310 309 307 307 306 306 306 305 305 305 305 305 306 306 307 307 308 308 307 311 318 320 321 321 321 321 319 318 318 319 318 319 319 321 324 325 326 327 325 324 324 323 322 321 322 323 322 322 322
336 338 338 337 337 336 336 336 336 335 336 336 332 330 328 324 325 328 329 326 327 328 327 327 327 326 325 320 317 317 317 319 321 321 317 313 311 309 308 307 306 306 305 305 305 305 305 305 307 307 308 309 310 310 309 314 319 320 320 320 320 318 318 318 319 320 320 320 319 319 321 323 324 324 323 322 322 321 321 320 321 322 321 321 321
337 337 338 338 337 336 336 336 336 336 336 336 334 331 329 326 324 327 329 327 327 327 327 328 327 326 326 323 319 318 318 319 321 321 318 314 312 310 309 308 305 305 304 304 305 305 306 307 309 310 311 313 314 313 312 316 319 319 319 318 317 317 319 320 320 321 321 322 322 320 320 320 320 319 318 316 316 317 317 318 319 319 318 317 316
337 337 337 337 338 337 337 337 336 336 336 336 335 333 330 327 324 325 329 328 327 327 327 328 327 325 326 324 321 320 319 320 321 322 320 315 313 311 310 309 307 306 306 306 307 307 309 310 311 313 315 317 317 317 316 318 319 319 318 316 316 317 319 320 321 321 322 322 322 322 321 321 320 320 319 316 315 316 316 316 317 317 316 316 316
335 336 337 337 337 337 337 337 336 336 336 336 336 334 332 328 325 324 327 327 326 327 326 327 326 325 324 323 322 321 321 320 321 322 321 318 315 313 312 311 310 310 310 311 312 312 313 314 315 317 318 319 319 319 319 319 319 317 316 316 316 317 318 320 321 321 321 321 322 322 321 321 321 321 321 321 320 320 319 318 319 319 319 319 318
331 331 335 336 336 336 337 336 336 336 336 337 336 336 333 330 328 325 325 326 326 326 326 327 326 326 325 323 323 322 322 321 321 322 322 320 317 316 315 315 315 315 315 316 316 317 317 317 317 319 319 320 320 320 320 319 318 314 314 316 316 317 318 320 321 321 321 321 321 320 320 321 321 320 321 321 321 321 321 320 320 320 319 319 318
326 325 330 333 334 334 334 334 334 334 334 336 336 336 335 333 331 328 325 325 326 327 327 327 327 327 326 325 324 324 324 322 321 322 322 321 319 318 319 319 319 319 319 318 319 319 319 319 319 319 319 320 320 320 320 319 317 312 313 315 315 316 319 320 320 320 320 320 320 320 321 321 319 319 319 318 318 319 319 319 318 318 318 318 316
321 323 325 327 330 331 331 332 332 331 332 335 336 335 335 334 334 332 328 326 327 328 328 328 328 328 327 326 326 327 327 324 322 322 322 322 321 320 320 321 322 321 321 320 320 320 320 320 320 320 320 320 320 321 320 319 316 311 311 314 314 316 318 319 319 318 319 319 319 320 320 319 317 316 317 317 318 318 317 316 316 316 316 315 314
318 320 320 319 323 327 330 329 330 331 329 331 335 335 334 334 334 334 331 328 328 328 328 327 327 327 328 328 327 327 328 326 324 323 322 323 322 321 321 321 322 323 323 323 322 322 322 321 321 321 320 321 321 321 320 319 315 310 310 311 313 316 317 318 318 317 318 318 319 319 318 318 317 317 317 317 315 316 315 314 313 313 313 313 312
317 318 317 316 318 321 327 328 327 330 329 328 331 334 334 333 334 334 333 331 330 329 329 328 328 328 329 329 328 328 327 327 327 325 323 323 323 322 321 322 322 323 324 324 324 324 324 323 323 322 321 321 321 321 320 318 313 308 308 310 313 315 316 317 316 316 316 317 318 318 318 318 316 316 315 314 314 314 314 313 312 312 312 312 309
317 317 315 315 317 318 324 327 324 327 329 327 327 331 333 333 333 334 333 333 332 331 330 330 330 330 330 329 329 329 328 328 328 328 326 324 323 323 322 322 322 323 324 324 324 324 324 324 324 323 322 321 321 320 319 316 312 307 307 309 311 314 315 316 316 315 314 316 317 317 316 316 315 314 313 313 312 312 311 310 308 308 308 306 303
320 316 316 315 317 320 325 327 324 324 327 327 327 328 330 332 334 333 333 334 333 333 332 332 331 331 330 330 330 330 329 329 328 329 328 326 324 323 323 322 323 323 323 324 324 324 324 324 324 324 322 321 320 319 315 313 309 306 307 309 311 313 315 315 315 314 313 313 315 315 314 313 312 312 313 311 309 309 309 308 306 305 304 300 298
321 316 317 316 315 319 322 324 322 322 327 330 329 327 327 331 333 333 333 334 334 333 333 333 332 332 331 331 331 330 329 329 329 329 329 328 326 324 324 323 323 323 323 324 324 324 324 324 324 324 323 321 319 317 312 309 307 306 307 309 311 311 312 312 311 308 307 306 307 308 307 305 306 309 311 309 308 309 308 309 306 301 300 298 296
319 317 317 316 314 316 318 318 319 321 327 332 331 327 325 328 332 332 332 333 334 333 333 333 332 332 332 331 331 331 330 330 329 329 329 329 328 325 324 323 324 323 323 324 324 324 324 324 324 323 323 321 318 314 310 308 306 306 306 307 308 308 307 306 304 302 300 300 300 300 300 299 300 304 307 308 309 308 308 308 305 302 301 296 295
319 318 317 315 313 314 315 316 318 319 325 331 329 326 324 325 330 331 330 331 333 334 333 332 332 332 332 331 331 331 331 330 329 329 329 329 329 327 325 324 324 324 323 324 324 323 323 323 322 322 322 319 315 312 309 308 306 306 305 305 305 304 303 301 300 300 299 299 298 298 297 297 297 298 302 306 307 307 307 306 304 305 302 296 297
318 317 316 315 313 314 314 315 318 319 322 327 326 325 326 324 325 327 327 331 334 334 333 332 331 332 332 331 331 331 330 330 329 329 329 329 329 328 326 325 325 324 324 324 324 323 322 322 322 323 321 317 314 311 309 307 305 304 303 302 302 301 301 300 300 299 298 298 297 297 296 296 296 296 297 300 301 302 303 303 303 304 301 300 301
316 315 315 314 313 314 314 314 316 318 320 322 323 324 328 326 322 321 325 333 336 334 333 332 331 331 332 331 329 329 329 330 330 329 329 329 328 327 327 326 325 326 324 324 324 322 321 321 322 323 321 316 312 308 306 305 304 302 301 301 301 301 300 300 299 299 297 297 296 296 296 295 295 295 295 295 295 296 296 297 298 301 302 303 303
314 314 314 313 313 313 314 314 314 316 317 320 322 324 328 329 324 318 321 329 334 335 332 331 331 331 331 330 327 327 328 329 330 330 330 329 327 326 327 326 325 326 324 323 324 322 321 322 322 321 318 314 309 306 304 303 302 301 301 301 301 300 300 299 298 297 296 296 295 295 295 295 295 295 294 294 294 293 293 293 293 297 300 301 302
314 313 313 313 313 313 314 314 314 314 314 316 319 320 323 325 321 316 315 319 328 333 332 331 333 331 331 331 328 328 328 328 330 330 330 328 327 327 328 326 325 326 325 324 323 322 321 321 321 319 316 313 308 305 303 302 302 301 301 301 300 300 298 297 297 296 295 295 295 295 295 294 294 294 293 293 293 293 293 293 292 293 295 296 298
313 313 313 313 313 313 314 314 314 314 313 313 314 315 317 317 316 314 313 314 319 326 329 331 334 333 332 331 329 329 328 328 329 329 329 328 327 328 328 327 326 326 325 324 323 322 321 321 319 316 314 312 307 303 302 302 302 302 301 300 299 299 297 297 296 295 295 294 294 294 294 294 294 293 293 293 293 292 292 292 292 292 292 292 294
314 313 313 313 313 313 313 314 314 313 313 313 313 313 313 314 314 313 314 314 314 319 324 326 331 333 333 332 330 328 327 328 329 329 328 327 327 328 328 328 327 326 325 323 322 322 321 321 319 315 314 311 306 303 302 302 302 302 301 299 298 298 296 296 295 295 294 294 294 294 294 293 293 293 293 293 292 292 292 292 292 291 292 291 291
314 314 314 313 313 313 313 313 313 313 313 313 313 313 313 313 314 314 314 314 313 315 317 319 326 332 332 332 331 328 326 326 328 328 327 327 327 328 328 328 327 326 324 323 322 322 321 321 319 315 313 311 306 303 302 302 303 301 300 299 298 297 296 295 294 294 294 294 294 293 293 293 293 293 292 292 292 292 292 291 291 291 291 291 291
314 314 314 314 313 313 313 313 313 313 313 313 313 313 313 313 313 314 314 313 313 313 313 315 321 329 330 330 331 328 323 322 325 327 327 327 326 326 327 328 328 326 324 323 322 321 321 321 318 313 311 310 305 303 303 302 302 301 299 298 297 296 296 295 294 294 294 293 293 293 293 292 292 292 292 292 291 291 291 291 291 291 291 291 291
315 315 314 314 314 314 314 313 313 313 313 312 313 313 313 313 314 314 314 313 313 313 313 313 317 322 324 325 329 326 323 323 326 327 326 325 324 324 327 328 327 326 324 323 322 321 320 319 317 312 309 307 304 303 303 302 302 300 299 298 297 296 295 294 294 293 293 293 293 292 292 292 292 292 291 291 291 291 291 291 291 291 291 291 290
315 315 315 314 314 314 314 313 313 313 313 312 312 313 313 313 314 314 313 313 313 313 313 313 314 317 318 321 325 325 326 328 328 326 324 323 323 324 327 327 327 326 324 323 322 321 320 319 317 313 308 305 303 303 302 302 301 299 298 297 296 295 294 294 293 293 292 292 292 292 292 291 291 292 291 291 291 291 291 291 291 290 290 290 290
315 315 315 315 314 315 314 314 313 313 313 312 312 312 313 313 313 313 313 313 314 313 314 316 317 318 319 321 323 325 328 329 328 326 323 322 323 324 327 327 327 326 323 322 321 320 320 319 317 314 309 304 303 303 302 301 300 298 297 296 295 294 294 293 293 292 292 292 292 292 292 292 292 291 291 291 291 291 291 291 290 290 290 290 290
315 316 315 315 315 315 315 314 313 313 313 313 312 312 313 313 313 313 313 314 314 313 315 320 323 323 324 324 325 327 328 328 328 326 323 324 325 326 327 326 325 324 322 321 320 320 320 319 316 313 308 304 303 302 301 300 299 298 297 295 294 293 293 292 292 292 292 292 292 292 292 291 291 291 291 291 291 291 290 290 290 290 290 290 290
316 316 316 316 316 315 315 315 314 313 313 312 312 312 313 313 313 313 313 313 313 314 317 323 326 326 326 326 326 328 328 328 327 326 325 325 326 326 326 325 324 323 322 320 319 319 319 318 316 310 305 303 302 301 301 299 299 298 298 296 294 292 292 291 292 291 292 292 291 291 291 291 291 291 291 290 290 290 290 290 290 290 290 290 290
315 315 316 315 315 315 315 315 315 314 313 312 312 312 312 313 313 313 313 313 314 314 317 322 326 326 325 325 325 327 328 327 327 326 325 324 324 325 325 324 323 323 321 319 318 318 318 317 315 308 303 303 302 301 300 299 298 298 297 297 295 293 292 291 291 291 291 291 291 291 291 291 290 290 290 290 290 290 290 290 289 289 290 289 290
316 315 315 315 315 315 315 315 315 314 313 312 312 312 312 312 312 312 313 313 315 316 316 319 323 324 324 324 325 327 327 327 326 326 324 322 322 323 323 322 322 321 320 320 318 318 318 316 311 305 302 302 301 300 299 299 299 298 298 297 294 293 293 291 291 291 290 290 290 290 290 290 290 290 290 290 290 289 289 289 289 289 289 289 289
315 315 315 315 315 315 315 314 314 314 313 312 312 312 312 312 312 312 313 314 316 317 317 318 320 323 324 325 326 326 326 326 326 325 323 321 321 321 321 321 320 320 319 319 318 318 318 313 307 303 302 302 301 300 299 299 298 298 299 298 295 295 296 294 292 290 290 290 290 290 290 290 290 290 290 289 289 289 289 289 289 289 289 289 289
314 314 314 314 314 314 314 314 313 313 312 312 311 311 311 312 312 312 312 315 316 318 320 321 322 324 326 325 325 325 325 326 325 324 321 320 320 320 320 320 319 319 318 318 318 317 314 309 304 302 301 302 301 300 299 299 297 297 298 298 297 297 298 296 293 291 290 290 289 289 290 290 290 290 289 289 289 289 289 289 289 289 289 289 289
314 314 314 314 314 314 314 314 313 313 312 312 311 311 311 311 312 312 312 315 317 318 320 322 324 326 326 325 324 324 324 325 325 322 320 320 319 319 319 319 319 319 318 318 317 314 309 304 302 301 301 301 300 299 299 298 297 297 298 298 297 297 297 296 294 293 292 290 289 289 290 290 290 289 289 289 289 289 289 289 288 289 289 288 288
314 314 314 314 314 314 314 313 313 313 312 312 311 311 311 311 312 312 313 316 319 319 320 322 324 325 325 325 324 323 324 324 323 321 320 320 319 318 319 319 319 319 318 317 315 310 306 303 301 301 301 300 299 299 298 298 297 297 298 297 296 296 296 295 294 294 293 292 290 290 290 289 289 289 289 289 289 289 288 288 288 288 288 288 288
314 315 315 314 314 314 314 313 313 313 312 312 311 311 311 311 312 313 314 317 320 321 322 322 324 325 325 325 324 323 323 323 321 320 319 319 319 319 319 319 319 318 316 315 311 307 304 302 301 301 300 299 299 298 298 297 297 297 297 296 295 295 294 294 293 293 293 293 292 291 290 290 289 289 289 289 288 288 288 288 288 288 288 287 287
315 316 315 315 315 315 314 314 313 313 312 312 311 310 311 312 313 313 314 317 320 322 322 322 323 324 324 324 323 322 322 322 320 320 320 319 319 319 319 318 317 317 316 312 307 305 303 301 300 300 300 299 298 298 297 297 297 297 296 296 295 294 293 293 292 293 293 293 292 291 291 290 289 289 289 288 288 288 288 288 288 288 287 287 287
316 316 316 316 315 315 314 314 314 313 312 311 311 310 311 312 313 313 315 318 321 321 321 321 322 323 323 323 322 322 322 322 320 320 319 319 319 319 319 318 316 316 316 311 304 303 302 301 300 300 299 299 298 298 297 297 297 296 296 296 295 294 294 293 292 292 292 292 292 291 291 290 289 289 289 288 288 288 288 288 287 287 287 287 287
Wind_Speed
9 10 11 10 10 10 11 12 12 10 10 11 10 10 11 11 12 12 12 13 14 16 18 19 20 19 17 15 14 14 14 14 14 14 13 12 12 12 11 11 10 11 11 12 12 13 14 12 12 13 12 13 13 13 14 14 14 15 16 17 17 17 17 17 17 15 14 13 14 15 17 18 19 19 19 19 19 20 21 23 25 27 28 27 27
11 10 10 10 10 10 11 13 12 10 10 10 9 9 10 10 11 11 12 13 14 16 17 18 19 19 18 16 15 14 14 14 14 14 14 13 12 12 11 11 11 12 13 13 14 14 12 11 13 13 13 14 14 15 16 16 17 17 18 18 18 19 20 21 21 20 16 14 13 13 15 16 16 17 17 17 16 16 17 18 19 22 24 24 25
12 10 9 10 9 9 10 12 12 10 10 9 9 9 8 9 10 11 11 12 14 15 16 17 17 17 17 16 15 14 14 13 13 14 14 14 13 12 11 11 11 13 14 14 15 13 11 12 14 14 15 15 16 17 17 18 19 19 20 20 21 23 23 24 23 22 19 16 15 13 14 14 15 15 15 15 15 14 15 15 15 16 17 17 19
11 10 9 10 9 9 10 11 12 11 9 9 8 8 8 8 9 10 11 12 13 14 15 15 16 17 17 16 15 14 14 13 13 13 13 13 13 13 12 12 13 13 15 16 14 12 12 13 15 15 16 17 18 19 19 19 20 21 21 22 24 25 25 25 22 21 21 21 19 17 17 16 16 17 16 15 14 13 13 13 13 13 13 13 13
10 11 10 10 9 8 10 11 12 11 10 9 8 7 7 7 8 9 9 11 12 13 13 14 15 16 16 16 15 14 14 13 12 12 12 12 12 13 14 14 15 15 17 17 14 13 13 14 16 17 18 19 20 20 21 21 22 22 23 23 24 25 23 22 22 23 24 23 23 23 22 21 21 20 19 17 16 15 14 13 13 13 12 12 11
10 11 10 10 10 9 10 11 12 11 10 9 8 7 7 7 7 8 8 10 11 11 12 13 14 15 16 16 16 15 14 13 12 12 12 12 11 13 13 15 17 15 16 17 13 12 13 16 18 19 19 20 21 22 23 23 24 24 25 26 26 25 21 19 23 26 25 23 25 26 25 24 24 23 22 20 20 18 17 16 15 15 15 14 13
9 10 11 10 11 10 9 10 12 11 10 9 8 7 7 7 6 7 7 9 9 10 11 12 13 14 15 16 16 15 15 14 12 11 11 11 11 12 14 15 15 15 16 15 13 13 14 18 20 21 21 21 23 23 24 24 24 26 26 27 27 27 24 21 23 25 23 23 24 26 27 26 25 24 22 22 21 21 20 19 18 18 18 18 17
9 9 9 10 11 10 9 9 11 11 10 9 8 7 7 6 5 6 6 8 8 8 10 11 12 13 15 15 15 15 15 14 13 11 11 11 12 13 14 15 16 18 18 15 16 16 16 20 21 22 21 22 23 24 25 24 24 26 27 27 26 26 22 20 22 22 21 23 24 25 27 27 27 25 23 23 23 22 22 23 22 21 21 21 20
10 8 8 9 10 10 9 9 10 11 9 8 8 7 7 5 5 6 6 6 7 7 8 10 11 12 14 15 15 14 15 14 13 11 11 11 12 14 14 15 18 19 16 14 16 15 16 19 21 22 21 22 23 24 26 24 23 25 26 26 25 22 19 19 22 22 22 24 25 26 27 27 26 25 24 24 24 24 25 25 25 25 24 24 24
10 9 9 9 9 9 8 8 8 10 10 9 8 7 7 5 5 5 5 5 6 7 7 9 11 12 13 14 14 14 15 15 14 12 10 11 11 13 12 17 19 16 16 14 12 13 16 19 20 21 21 23 24 25 26 25 24 24 24 24 23 21 20 21 22 22 24 25 25 26 25 25 26 24 22 22 23 23 25 25 26 27 26 26 25
11 10 9 9 10 9 9 8 7 9 10 10 8 8 7 6 5 5 4 4 5 6 7 8 9 11 12 13 14 14 14 15 14 13 11 10 11 11 11 15 17 15 15 12 11 14 17 18 19 20 21 24 25 25 26 26 24 24 24 23 22 21 22 23 22 22 24 25 25 25 24 24 25 23 21 22 22 23 24 24 24 25 25 25 24
10 9 8 9 10 10 9 8 7 7 9 9 9 8 8 7 6 5 3 3 4 5 6 7 8 10 11 12 13 13 14 15 15 13 11 10 10 10 11 13 15 14 13 12 14 16 17 18 18 19 22 23 24 25 26 26 24 24 24 24 23 21 21 22 22 22 22 25 25 24 24 24 24 22 21 22 22 23 23 23 24 24 24 24 24
10 9 9 9 9 10 9 8 8 7 7 7 8 8 8 8 7 4 3 3 3 4 5 5 7 8 10 11 12 12 12 14 14 14 12 10 9 9 10 12 13 13 12 14 16 17 17 17 18 20 22 23 23 24 25 24 23 24 26 26 24 22 21 21 20 20 20 23 24 24 23 23 23 21 20 22 22 22 23 23 23 23 23 23 24
10 9 9 8 9 10 9 8 8 6 6 6 7 7 7 8 8 5 4 3 2 3 3 4 5 7 9 10 11 11 11 12 13 13 12 10 9 9 9 11 11 12 13 15 17 17 17 17 18 20 21 21 22 23 24 23 23 25 25 25 22 19 18 19 21 22 20 20 21 22 23 23 21 20 20 21 22 22 21 21 22 22 22 21 22
11 10 9 8 9 10 8 8 8 7 6 6 6 6 6 8 8 6 4 3 1 2 2 3 4 6 7 8 9 10 10 11 12 13 12 11 9 8 8 9 10 11 13 15 17 18 17 17 19 20 20 20 21 23 23 23 23 23 22 21 19 16 16 19 23 25 25 22 21 20 21 20 19 19 19 20 21 21 21 19 19 20 20 20 20
13 12 10 9 10 10 9 9 9 8 7 6 6 5 5 7 8 7 5 3 2 1 1 2 3 5 6 7 9 8 9 10 11 12 12 11 10 9 8 9 11 12 14 15 16 17 17 17 18 19 19 20 20 22 22 21 19 18 18 17 17 18 20 23 26 27 28 27 27 24 20 16 15 16 16 17 18 19 19 19 18 19 19 19 18
16 14 12 11 11 11 10 10 10 9 8 7 7 7 6 7 7 7 6 4 3 2 1 1 2 4 4 6 8 7 8 9 10 11 12 12 11 11 10 10 12 13 14 15 16 17 17 17 18 18 19 19 20 21 20 17 16 15 15 15 18 23 25 26 28 28 28 28 28 28 24 18 16 15 14 15 15 16 17 18 18 18 18 17 16
17 16 15 13 12 11 11 12 11 10 10 9 9 8 7 7 7 8 8 6 5 4 2 1 1 2 3 4 6 6 7 8 9 10 11 12 12 12 12 12 13 13 14 15 16 16 16 16 17 17 18 19 19 19 17 15 14 13 13 15 19 23 26 27 28 28 28 27 27 27 26 24 22 21 19 19 18 18 17 17 18 18 19 19 19
18 18 17 16 15 13 12 12 11 11 12 10 10 10 8 8 8 8 8 7 6 5 4 3 2 2 2 3 4 4 5 6 7 8 9 11 12 12 13 14 14 14 15 15 16 16 16 16 16 16 17 17 17 17 15 14 14 13 14 17 20 22 25 28 28 28 28 27 27 27 26 25 24 24 24 24 24 23 22 20 21 22 23 23 23
18 17 17 17 17 15 14 12 11 11 11 10 10 10 10 9 8 8 9 8 7 6 5 4 4 3 3 3 3 3 3 4 5 7 8 9 11 12 13 14 14 14 15 15 15 15 15 15 15 15 15 15 15 14 13 13 13 13 16 18 19 21 24 27 28 29 29 28 27 26 25 24 25 26 25 25 26 25 24 24 24 24 23 22 20
18 16 17 18 18 17 17 15 13 13 12 10 10 10 10 10 10 9 9 9 8 7 7 6 5 4 4 4 3 3 2 1 3 5 6 7 9 11 12 13 13 13 13 13 14 14 14 14 13 13 13 13 12 12 11 11 12 12 16 18 18 20 24 26 28 29 29 27 26 25 23 23 24 24 23 24 24 23 21 20 21 21 19 18 17
17 16 17 18 18 18 17 16 15 15 14 12 10 10 11 11 10 10 10 10 9 8 8 7 6 5 5 4 4 4 1 1 1 3 4 5 7 9 9 10 11 11 12 12 12 12 12 12 11 11 10 10 9 10 10 10 11 11 14 16 17 20 23 25 27 29 29 27 25 23 22 21 21 20 20 21 21 22 20 15 14 15 15 15 17
16 17 18 17 18 18 17 16 16 16 15 14 12 11 10 10 11 11 11 11 10 10 9 9 8 6 5 5 6 6 2 3 2 1 2 3 5 7 8 8 9 10 10 11 11 11 11 10 10 9 8 8 8 9 9 9 9 10 13 15 17 20 22 23 25 27 28 27 24 22 21 21 20 19 19 18 17 18 19 16 13 11 10 13 16
16 17 18 17 17 18 18 18 18 17 15 14 14 13 11 10 11 12 12 11 11 12 11 11 9 7 7 6 8 8 5 3 2 1 1 2 4 6 7 7 8 9 9 10 11 10 10 9 9 8 8 7 7 8 9 8 8 9 12 15 17 19 20 21 23 24 26 26 24 21 20 19 18 17 15 14 13 12 12 13 13 10 8 9 13
16 16 17 16 17 18 19 20 19 17 16 15 15 16 14 11 12 13 12 12 12 13 12 11 10 9 9 8 9 10 7 6 4 3 3 4 5 6 7 8 8 9 9 10 10 10 10 9 8 7 7 7 6 7 8 8 8 9 11 15 17 17 18 19 20 20 21 23 22 19 18 16 14 14 14 12 10 10 10 11 12 13 12 9 10
16 16 15 15 16 18 19 21 20 17 16 15 15 17 17 15 13 13 13 12 13 13 13 12 11 10 10 10 12 11 10 9 7 6 6 5 7 7 8 8 8 9 9 10 10 10 9 9 9 8 7 7 6 7 8 8 9 10 13 15 16 16 16 17 16 15 14 16 17 15 13 13 15 18 19 17 15 15 15 15 15 16 15 11 12
18 16 13 13 16 18 20 21 21 19 17 16 16 17 18 18 15 14 14 14 15 14 13 13 12 12 12 12 14 14 12 12 11 10 9 7 8 9 9 9 10 10 10 9 9 9 9 9 9 8 7 7 7 7 8 9 10 12 14 16 16 16 15 15 14 14 13 12 13 12 11 11 15 20 21 19 19 19 19 20 16 13 14 13 14
20 17 15 14 15 18 21 21 21 21 19 18 18 17 18 21 20 17 16 16 17 15 14 14 14 14 14 14 14 15 15 13 13 12 12 10 9 9 10 11 12 12 10 8 8 8 8 8 7 7 6 7 7 8 10 11 12 13 15 16 16 16 16 16 15 15 14 13 12 11 10 10 12 18 20 20 20 20 19 20 17 16 16 16 16
20 19 18 17 15 16 20 21 21 21 21 20 20 18 18 20 22 21 19 18 18 16 15 15 15 15 16 16 14 16 17 15 15 14 14 13 9 8 9 12 13 11 9 9 8 8 8 7 7 7 6 8 9 10 11 12 14 15 16 17 17 17 16 15 15 14 13 12 12 11 10 10 11 14 17 20 21 20 20 19 18 19 19 18 19
21 19 19 18 16 16 18 21 22 22 22 22 21 20 19 20 21 22 20 19 20 18 16 16 16 17 17 16 15 17 18 17 16 16 17 16 11 10 11 13 11 8 9 12 10 7 7 8 8 8 7 9 11 11 12 14 17 18 18 17 16 15 14 13 13 12 12 11 11 11 10 10 11 11 12 13 15 17 18 19 19 20 19 20 22
21 20 19 19 18 18 18 19 21 22 23 22 22 21 20 21 21 21 20 21 23 22 19 18 18 19 18 17 15 16 18 18 18 18 20 17 13 13 15 13 10 7 9 12 10 8 9 10 10 9 8 8 11 13 15 16 18 19 18 17 15 14 13 12 11 11 11 11 11 11 11 10 10 10 10 10 11 13 15 15 16 19 20 21 21
21 21 21 20 19 19 18 18 20 22 22 22 22 22 21 22 24 23 22 25 26 24 22 21 22 22 20 19 17 17 18 20 22 22 20 17 13 15 17 14 10 8 9 12 10 8 10 11 11 11 10 9 12 15 16 17 19 19 17 16 14 13 12 11 10 10 10 11 11 10 10 10 10 10 10 11 12 12 12 12 13 17 19 19 19
22 22 22 21 20 20 19 19 20 21 21 20 21 21 21 23 26 26 24 25 29 29 25 22 25 26 23 22 19 19 20 20 23 23 19 15 14 17 17 14 12 12 13 14 12 9 10 12 12 13 12 10 12 17 17 18 18 18 16 14 13 12 12 11 11 11 11 11 10 10 10 10 10 10 11 11 11 11 11 12 14 15 15 16 18
22 23 23 22 21 20 21 21 21 20 20 19 20 21 21 23 26 26 25 23 25 31 29 25 27 27 25 24 21 19 19 18 20 21 18 16 16 19 19 15 15 16 16 16 14 11 10 11 14 15 13 9 13 17 18 18 18 17 15 14 12 12 11 11 11 11 11 11 10 10 10 10 10 10 10 10 10 11 12 13 14 14 15 16 17
23 24 23 23 22 21 21 22 21 21 21 21 22 22 24 25 25 25 25 23 21 26 30 30 29 27 24 24 23 21 20 19 19 20 20 18 17 20 20 17 16 19 19 17 16 12 11 12 14 15 14 11 14 18 18 17 17 16 15 13 12 11 11 10 11 11 11 10 10 9 9 9 8 8 8 9 10 11 12 13 13 13 14 15 16
23 23 23 23 22 22 22 23 23 23 23 23 23 23 25 26 25 25 25 25 24 24 28 32 32 30 26 24 24 22 21 21 22 21 19 18 18 20 20 18 18 21 20 18 17 13 12 14 14 13 13 13 16 18 19 17 16 15 14 13 12 11 11 10 10 9 9 9 8 8 8 7 7 8 8 9 10 11 11 11 11 12 12 13 14
23 23 23 22 22 22 22 23 23 24 24 24 23 23 25 26 25 24 24 25 26 25 26 29 32 32 29 27 24 21 22 24 25 23 19 17 18 19 19 18 20 23 21 19 17 14 13 15 16 14 12 13 16 18 19 17 15 15 14 12 12 11 10 10 9 8 8 7 7 7 7 7 7 8 8 9 10 10 10 10 10 10 11 12 13
23 23 23 23 23 23 23 23 23 25 26 25 23 23 25 26 24 23 23 25 25 25 25 26 30 33 32 31 27 23 23 24 23 21 19 18 19 18 19 20 23 24 23 21 18 15 14 15 16 16 13 13 16 18 17 17 15 14 14 12 11 10 10 9 9 8 8 7 7 7 7 7 7 8 8 8 9 8 8 9 9 9 10 12 13
24 24 23 24 24 24 23 23 24 25 26 25 24 24 25 25 24 23 23 24 24 24 24 24 27 29 29 29 27 23 21 20 20 20 19 20 18 18 20 22 24 26 26 24 21 18 17 17 16 15 15 16 16 17 17 16 15 14 13 13 12 10 10 9 9 9 8 7 7 7 6 6 6 7 7 7 7 7 7 8 8 9 10 12 13
24 24 24 24 25 24 23 24 24 25 25 25 24 25 26 25 24 23 23 23 24 23 22 21 21 22 23 25 24 21 20 20 20 20 20 19 18 19 22 23 26 28 28 26 23 21 20 19 17 16 17 19 18 16 15 15 15 15 14 13 12 11 9 9 8 7 6 6 5 5 4 5 5 5 6 6 6 7 7 7 8 9 10 12 13
24 24 24 25 25 24 25 25 25 25 24 24 24 25 26 25 24 23 23 22 23 23 21 20 19 20 22 23 22 20 21 21 20 21 20 19 19 21 23 24 26 27 26 24 22 21 20 19 18 17 17 20 20 18 16 15 14 15 15 14 13 11 9 8 6 6 5 4 3 3 3 3 4 4 5 5 5 6 6 7 8 9 10 12 13
24 24 26 26 26 26 26 26 25 26 24 23 24 25 25 24 23 22 22 22 22 22 22 22 22 21 21 22 21 21 22 22 21 21 20 19 20 20 21 21 22 23 23 22 21 21 21 19 18 18 19 19 19 18 17 15 13 11 12 14 14 12 9 7 6 5 5 4 3 2 2 2 2 3 3 3 4 5 6 7 8 9 11 13 13
27 28 28 28 28 28 28 27 27 26 25 24 25 25 25 24 23 23 21 21 21 22 24 25 25 23 22 21 21 21 22 22 21 20 20 19 19 20 20 20 21 23 24 23 22 22 21 19 18 19 22 21 18 18 17 15 13 11 10 11 13 13 11 9 8 6 6 5 3 2 1 1 1 1 2 3 4 5 6 7 9 11 12 13 14
30 30 30 30 30 30 29 29 29 27 26 26 26 25 25 24 24 23 21 20 20 22 24 26 27 25 23 21 21 22 23 22 21 21 21 20 19 20 20 20 21 23 24 23 23 24 22 20 20 20 22 22 21 20 19 16 13 11 11 11 11 11 10 11 11 9 7 6 5 4 3 2 1 1 2 3 5 6 7 9 11 12 13 14 15
30 30 30 30 30 30 30 30 30 28 27 26 26 25 25 25 24 23 22 21 21 22 23 26 28 26 23 22 22 22 21 22 22 23 23 21 20 20 19 20 21 23 24 23 24 24 23 22 22 21 21 19 18 20 20 18 14 11 11 10 9 9 9 11 12 11 9 8 6 5 4 3 2 2 3 4 5 7 8 10 11 12 13 15 16
27 28 29 29 29 30 30 30 30 28 27 26 26 25 25 26 25 24 24 24 24 24 24 25 26 25 24 24 23 22 21 22 23 24 23 22 20 19 20 21 21 22 24 25 25 25 24 24 22 21 20 17 15 18 19 17 15 14 11 7 6 5 6 11 13 11 12 11 9 7 6 4 3 2 3 4 5 7 8 10 11 13 14 15 16
23 24 25 26 26 28 28 29 28 27 27 26 25 25 26 26 25 24 24 24 24 24 23 23 24 25 26 25 23 23 23 23 24 24 23 22 21 20 21 20 20 22 25 27 27 26 25 24 23 21 20 19 17 16 17 15 15 15 13 10 8 6 5 8 10 10 12 13 12 10 8 6 4 3 3 4 5 7 8 10 11 13 14 15 15
19 20 21 21 23 24 25 26 26 26 27 25 25 26 26 26 25 25 24 23 22 22 21 22 26 28 28 27 25 25 25 25 26 25 24 23 23 22 22 20 19 23 26 27 27 27 26 25 24 22 21 19 18 16 15 14 13 14 14 14 12 10 9 9 7 8 9 11 13 12 10 8 6 4 3 4 5 6 8 10 12 13 14 14 15
17 17 17 18 19 20 22 23 24 25 25 24 25 26 27 26 25 25 25 23 23 23 22 23 28 30 29 27 26 27 27 27 27 27 26 25 23 23 23 21 21 23 25 26 27 27 27 26 25 24 23 20 19 17 16 14 12 12 13 14 14 12 12 11 10 10 9 9 11 12 11 10 7 5 4 4 5 7 9 10 12 13 13 14 14
14 14 14 15 16 18 19 21 23 24 23 23 25 26 27 26 26 26 25 25 26 26 24 23 27 29 26 25 27 29 29 29 29 28 27 26 24 24 25 24 24 24 24 26 27 27 27 27 26 25 23 21 20 19 17 15 13 13 13 13 14 13 12 12 13 13 11 10 9 9 10 9 7 5 4 4 5 7 8 10 12 12 13 13 14
11 11 12 13 15 16 18 20 22 23 22 23 26 27 27 27 27 27 27 27 27 27 27 26 27 28 26 26 29 30 30 30 29 29 28 27 26 26 27 27 25 24 25 26 28 29 28 28 27 26 24 22 22 21 20 18 16 15 14 14 13 12 11 11 12 14 14 12 9 8 9 9 7 5 4 4 6 8 9 10 11 12 13 14 15
Wind_Direction
129 139 136 131 128 119 115 112 112 114 114 111 102 94 91 90 89 84 77 68 63 61 57 52 48 47 45 47 51 57 61 63 63 64 69 73 79 82 84 87 88 90 87 84 81 79 80 75 76 79 73 71 70 69 70 71 74 77 79 76 75 74 73 72 73 77 77 77 77 79 77 78 81 77 73 70 70 69 66 67 67 69 68 66 66
137 143 138 134 133 126 121 118 115 115 117 113 104 95 92 92 89 83 75 67 61 61 59 55 50 48 46 46 48 52 58 61 64 65 68 72 78 83 85 88 87 88 86 84 81 76 80 81 79 78 73 74 74 72 73 75 77 78 79 77 75 73 70 68 66 67 70 75 77 79 77 75 79 76 71 66 63 62 59 58 58 61 63 62 63
142 145 142 141 138 133 129 122 119 119 118 114 107 98 93 90 88 83 72 65 60 61 60 55 51 48 47 47 48 51 56 59 63 67 70 74 76 82 84 86 85 88 87 83 86 84 80 81 80 78 76 76 76 77 78 79 78 78 79 79 77 73 68 63 62 65 65 70 77 79 77 74 74 71 66 61 56 52 50 50 48 50 54 55 56
144 142 145 146 144 142 135 131 126 124 122 117 112 101 96 92 88 80 66 63 58 59 59 55 51 47 47 46 48 50 54 58 62 67 70 74 77 82 82 83 84 86 84 77 79 85 83 83 83 80 78 78 79 81 80 80 79 80 83 84 82 75 69 63 60 65 64 63 71 77 75 72 70 68 65 61 58 53 49 48 47 47 47 49 51
149 142 148 147 147 149 139 138 130 127 127 121 119 109 102 99 90 79 64 62 59 57 55 53 49 45 46 44 46 48 52 56 60 65 68 73 75 78 79 80 82 84 87 83 77 78 84 86 84 82 80 81 82 83 82 81 81 82 85 84 82 79 76 72 65 63 60 59 66 69 67 67 66 65 66 65 64 63 60 58 57 56 55 56 57
155 146 152 151 150 151 143 140 132 131 131 126 125 117 107 103 90 77 65 63 62 59 55 51 48 45 45 42 44 45 48 51 56 63 66 72 73 75 78 80 83 88 95 98 95 86 86 87 86 84 83 84 85 84 83 83 84 86 87 81 75 71 71 77 76 70 64 60 62 61 59 60 62 62 64 65 64 65 66 67 69 69 67 66 66
161 153 154 153 154 152 147 142 134 135 133 130 129 124 113 107 92 78 68 64 62 61 58 52 47 46 45 42 42 44 45 46 51 58 62 67 70 74 79 82 86 85 84 87 89 85 86 89 89 87 86 89 88 86 87 88 90 90 86 79 73 67 65 70 77 79 75 68 65 61 57 56 58 61 61 62 62 62 62 64 68 70 71 69 69
167 157 156 154 155 152 149 148 138 136 136 133 130 128 119 109 98 85 71 62 59 58 58 53 48 47 46 43 42 44 44 44 47 52 58 61 65 76 81 84 84 79 76 74 76 82 87 89 90 89 90 92 91 89 88 90 93 91 88 84 80 77 72 70 77 83 79 73 70 66 62 58 58 60 59 58 59 59 57 58 61 64 66 67 67
170 157 164 160 157 154 151 153 144 138 138 135 130 129 123 115 110 97 73 59 57 58 57 53 48 47 47 44 43 44 44 44 48 51 59 61 67 80 87 89 87 86 86 83 84 92 91 90 91 92 93 93 92 90 88 89 91 94 95 95 94 92 85 78 81 83 80 77 75 71 67 65 63 60 56 53 55 55 53 53 54 56 57 58 59
170 165 168 167 165 157 153 155 147 142 139 136 132 128 125 122 122 108 78 61 59 62 60 55 49 50 49 45 43 43 44 44 48 53 63 69 74 83 91 94 95 98 95 93 101 103 94 92 93 95 97 95 93 91 88 87 89 93 96 98 100 98 91 85 84 81 80 79 77 74 71 69 67 63 58 56 56 57 57 55 54 55 55 56 56
174 174 168 168 172 161 158 158 149 147 142 140 137 132 130 134 133 112 83 61 62 64 64 58 51 52 52 48 43 42 43 43 48 53 64 75 82 85 88 98 106 110 108 112 116 105 97 96 96 98 99 97 95 92 89 87 87 90 91 93 96 98 95 92 90 85 81 80 78 77 75 72 70 67 64 63 64 64 64 63 61 62 62 61 60
179 178 173 171 176 169 165 161 152 150 145 145 145 143 141 140 137 120 98 69 63 63 64 60 50 49 53 50 44 41 42 42 46 52 62 76 87 89 84 95 110 119 123 124 114 106 103 100 100 101 98 95 94 92 89 88 89 88 88 87 87 89 92 94 94 93 88 83 81 79 78 75 72 72 70 68 69 69 69 69 68 67 67 66 65
181 181 180 177 181 177 170 164 158 156 149 150 151 153 152 145 140 138 121 89 69 61 62 59 47 44 50 51 44 40 42 43 44 49 59 72 86 92 88 91 104 117 121 116 110 107 105 104 104 101 97 95 93 92 91 90 91 88 85 81 77 76 82 86 87 89 91 88 84 82 79 76 75 74 74 73 72 73 72 71 71 70 68 68 68
187 188 186 184 185 181 175 173 169 169 162 159 157 158 159 154 148 145 137 117 82 64 63 60 52 44 48 51 45 39 41 44 44 47 55 65 78 88 92 93 99 108 111 111 109 107 105 105 103 100 97 95 94 93 92 92 91 87 83 81 80 80 79 79 79 77 84 89 85 85 80 76 77 75 77 77 73 72 71 70 70 70 69 69 69
190 193 193 185 183 184 187 187 181 176 175 174 166 163 167 162 155 151 156 154 114 82 65 57 56 47 45 45 43 41 42 46 46 48 54 61 70 80 91 96 98 101 103 105 105 106 105 106 103 100 98 95 95 94 94 95 92 88 87 89 90 91 84 79 81 78 79 81 78 85 85 79 79 76 77 78 72 70 69 68 68 68 69 70 71
185 187 191 187 185 189 193 198 193 183 181 186 182 178 179 173 163 160 168 177 174 145 71 44 45 46 44 37 39 43 44 48 49 51 57 62 68 74 80 83 88 94 97 101 104 105 105 105 103 101 98 96 95 94 96 96 91 88 89 92 91 89 86 81 82 79 77 76 72 76 84 83 81 75 72 74 71 69 67 66 67 65 65 65 66
181 185 188 188 188 191 194 200 199 191 188 190 193 191 187 183 175 170 175 189 195 191 161 88 28 35 36 29 34 40 44 51 53 53 60 67 71 76 80 81 87 95 99 101 102 102 102 102 101 100 99 97 95 94 96 93 87 86 85 88 91 90 88 84 82 80 77 76 73 72 75 75 73 67 65 68 68 69 67 64 63 61 58 56 55
179 186 189 187 188 188 190 195 197 195 192 194 197 196 191 191 188 181 183 196 202 205 207 202 324 4 11 19 29 33 41 51 55 58 64 72 77 80 85 88 92 97 100 100 99 99 99 99 99 100 99 97 94 94 94 89 84 84 84 86 93 95 94 90 86 83 81 79 77 76 75 73 71 71 70 72 72 72 71 68 65 63 59 55 55
185 188 192 193 193 190 188 189 193 195 193 197 202 198 192 195 198 192 193 202 205 216 224 226 255 303 335 358 21 25 32 47 55 60 68 76 82 85 89 92 96 98 100 101 101 101 100 100 101 100 99 95 93 93 90 85 80 81 88 93 98 99 98 97 92 88 85 83 81 79 79 77 76 76 76 78 79 78 78 79 78 73 67 63 62
196 196 196 200 201 198 197 192 189 191 193 198 204 201 195 198 204 200 203 208 211 222 229 235 255 280 308 326 347 359 11 34 53 62 71 80 86 90 94 96 99 101 102 104 104 103 102 102 103 101 99 96 94 92 88 83 77 83 98 106 107 104 101 100 99 94 88 85 84 81 81 82 82 79 77 78 80 78 79 80 80 77 73 73 71
204 205 202 206 208 208 208 201 194 194 195 198 202 202 200 201 207 207 209 214 216 221 228 237 246 259 284 295 303 324 339 5 50 64 73 85 95 98 99 101 102 103 103 105 104 103 103 103 102 101 99 96 94 90 85 80 76 90 110 117 116 109 107 105 103 99 93 89 86 84 82 81 80 80 77 76 77 75 73 77 78 78 79 78 70
209 211 212 214 214 216 216 210 204 203 199 198 199 200 203 207 211 214 213 217 221 221 228 237 239 249 268 273 280 293 271 145 81 68 79 94 107 110 110 109 108 107 106 106 105 104 104 104 104 102 99 93 89 83 77 74 76 96 117 124 121 115 115 114 110 107 101 94 90 89 85 80 80 82 81 78 80 77 71 74 78 76 75 68 59
215 217 221 223 220 220 221 216 211 210 205 201 202 202 206 211 215 217 216 219 222 224 229 236 241 247 254 257 269 274 234 152 136 82 107 120 127 129 127 123 119 115 114 112 109 107 105 104 101 97 97 94 89 83 74 70 76 101 122 125 122 120 121 120 117 114 109 104 100 97 90 86 86 86 85 84 88 85 76 71 71 70 64 55 52
218 221 226 228 226 224 223 225 222 216 211 208 210 211 209 212 218 219 220 222 223 227 229 231 236 234 234 242 257 263 251 201 184 203 210 175 162 155 150 147 138 129 126 124 118 115 109 102 95 90 90 95 97 93 85 76 80 106 125 126 124 124 125 123 120 117 116 114 111 108 103 99 97 91 88 89 91 90 82 73 66 65 61 48 46
223 225 231 233 231 230 227 231 233 223 213 212 214 214 211 212 220 221 224 228 227 227 224 226 229 223 221 224 238 248 253 248 235 236 238 210 195 183 173 169 159 147 141 137 131 125 117 108 100 95 94 98 97 97 95 89 95 114 124 126 126 127 126 124 122 117 115 118 119 119 115 110 100 87 80 79 79 77 75 71 63 60 59 46 39
231 232 236 241 236 235 230 232 237 224 211 214 217 215 212 210 215 221 226 230 227 226 224 226 227 222 221 217 224 236 245 252 256 253 247 227 212 199 189 184 178 168 157 151 143 132 126 118 111 103 102 108 106 101 102 102 111 123 126 127 128 128 126 124 123 116 111 117 124 126 121 109 89 76 74 73 70 70 69 68 67 63 58 43 36
234 240 240 243 235 234 231 232 235 225 213 215 223 223 217 211 211 217 222 227 225 224 227 227 228 227 225 216 221 236 242 248 258 259 256 247 225 208 201 196 193 187 174 163 149 137 129 120 113 104 102 112 114 113 115 116 123 129 130 131 132 131 130 128 124 115 107 107 115 116 111 103 86 77 75 74 72 70 68 67 66 62 55 43 36
233 241 243 245 238 233 232 232 232 228 219 214 226 234 224 214 214 220 221 225 225 223 228 230 231 230 226 218 221 232 236 244 257 260 259 255 238 218 209 203 205 200 186 173 155 145 135 125 119 115 118 125 123 124 126 126 130 134 135 134 134 134 131 129 123 116 112 106 105 103 99 96 89 85 80 74 72 71 69 66 61 58 55 47 41
235 236 238 247 247 236 231 230 229 231 226 218 225 235 231 219 216 225 228 228 226 223 228 234 236 232 224 220 224 230 231 242 254 256 254 250 241 228 218 215 218 211 196 187 170 153 147 142 135 132 141 142 132 130 132 134 137 137 135 133 131 131 129 127 123 118 115 111 106 103 98 94 92 93 85 74 71 71 69 66 61 61 58 52 49
241 240 239 244 247 238 230 226 226 229 227 221 222 228 234 231 222 224 230 231 226 222 228 235 239 238 228 222 229 232 234 245 252 253 249 240 227 225 230 230 227 215 199 192 178 160 154 144 136 138 148 145 134 133 140 142 140 137 133 131 129 128 127 125 123 119 115 111 107 104 99 92 89 90 85 76 72 69 68 67 65 63 58 54 53
243 244 244 244 243 239 231 225 225 226 227 225 225 226 231 239 238 230 224 225 224 221 228 234 236 237 233 230 233 237 241 247 249 251 246 231 224 237 243 238 225 213 198 189 178 166 156 139 134 142 147 145 136 138 145 145 142 139 136 133 130 129 127 123 120 117 112 107 102 99 95 90 86 83 79 73 68 64 64 65 65 63 60 57 56
242 243 244 245 242 239 234 228 226 227 229 230 232 234 232 238 246 242 228 223 223 224 230 236 235 232 231 232 236 241 246 246 245 246 239 230 241 254 245 232 220 216 199 190 182 164 152 142 141 147 146 145 142 144 149 150 145 140 138 134 132 131 128 124 120 115 110 105 101 98 94 89 83 77 72 68 65 64 63 61 58 60 61 59 59
242 242 243 245 243 239 234 231 230 232 233 233 234 238 237 236 243 247 241 229 224 228 233 235 234 235 236 233 230 236 242 244 242 236 230 236 254 253 237 224 221 221 208 196 187 165 151 148 152 151 144 145 150 150 153 153 145 140 138 134 134 133 128 125 120 115 112 109 106 101 95 90 84 78 73 70 68 66 62 58 54 54 54 54 55
239 240 242 244 243 239 235 234 234 236 236 235 234 234 233 234 239 245 249 242 229 226 227 228 231 237 241 238 232 232 236 239 237 231 233 243 245 240 230 224 224 222 213 201 192 174 155 157 160 152 143 150 158 156 158 155 148 143 139 137 137 134 130 127 122 118 115 111 106 99 93 89 86 82 78 73 68 64 59 55 53 50 47 47 49
236 238 240 242 243 240 237 237 237 237 236 235 235 234 233 236 242 246 251 255 245 231 225 224 230 234 237 239 236 233 236 239 239 238 241 238 231 230 228 230 229 220 212 203 196 182 163 167 168 156 148 159 165 161 162 159 153 148 142 142 141 134 131 127 121 118 113 108 102 96 91 87 84 81 80 74 66 62 58 54 50 46 45 44 45
237 238 239 241 242 241 240 240 239 238 237 237 236 236 238 242 247 250 252 256 256 246 234 228 230 232 234 237 236 236 240 242 244 239 230 224 222 224 225 232 231 219 211 204 196 186 176 173 170 163 159 166 171 167 165 163 157 151 146 146 142 134 131 124 119 116 111 110 106 101 96 93 91 85 79 71 64 59 55 52 47 43 42 42 43
240 241 241 241 242 243 243 244 243 241 240 239 237 236 240 244 245 248 251 253 253 251 243 234 229 231 234 234 235 242 247 246 246 234 216 215 220 219 220 227 228 218 210 203 194 190 187 178 169 167 172 176 175 170 165 164 159 152 148 146 139 135 131 125 122 118 116 118 114 111 107 101 95 85 76 66 59 54 48 44 41 39 38 38 37
241 242 242 243 245 246 247 248 247 246 244 241 238 238 240 243 244 245 246 248 249 248 245 238 232 232 233 233 237 250 253 247 240 225 211 214 218 216 217 222 224 216 208 201 193 188 185 183 176 168 175 182 176 170 168 165 160 154 150 146 142 138 135 131 130 128 128 128 122 116 108 99 89 76 68 58 52 46 41 38 35 33 30 30 29
241 242 243 245 247 248 249 249 249 248 248 245 239 238 240 243 244 242 242 244 246 245 243 239 236 233 232 231 235 244 244 229 218 215 215 215 215 214 216 221 223 215 207 198 189 185 183 186 186 175 174 180 178 173 171 168 161 158 154 147 142 140 137 136 137 137 135 128 121 114 105 92 77 65 56 49 43 38 33 29 26 23 21 22 22
241 244 245 246 249 251 251 250 250 250 249 246 241 238 240 242 242 241 241 242 243 242 236 231 229 224 222 223 226 232 228 213 207 217 222 218 213 212 214 219 221 215 205 193 186 187 186 185 187 187 180 176 178 177 174 173 165 156 151 143 139 139 138 138 139 136 133 127 118 109 99 81 64 52 44 39 33 27 22 16 14 14 14 15 16
241 245 248 248 250 252 252 252 253 253 251 248 244 241 242 243 243 243 242 241 240 238 227 217 215 213 214 217 221 229 224 213 212 220 222 214 209 211 213 216 216 211 201 192 189 188 185 185 187 191 187 177 175 178 178 177 171 159 150 144 141 140 138 139 141 139 135 133 129 114 93 70 53 42 34 31 24 15 11 9 8 9 9 11 11
245 250 251 250 251 252 253 254 254 254 254 249 245 244 244 244 244 244 243 239 237 232 219 210 209 210 214 216 222 228 219 210 213 219 217 204 198 203 206 206 205 202 196 192 191 188 185 190 191 186 184 182 178 178 179 179 179 171 159 153 147 143 145 150 153 156 161 160 154 140 103 74 49 38 33 23 13 7 6 5 5 5 6 6 6
250 252 251 250 250 251 253 254 254 254 253 249 246 244 244 243 243 243 239 235 231 225 216 210 208 209 214 218 223 224 214 210 216 216 208 198 194 195 194 193 194 196 195 193 190 189 190 193 193 186 180 181 183 182 181 184 185 174 163 161 156 151 155 165 171 172 179 180 175 171 154 128 74 40 22 9 4 2 1 1 2 3 3 2 1
250 250 249 249 250 251 253 253 254 254 252 250 246 244 244 243 242 241 237 231 224 219 215 212 211 212 216 216 217 216 212 214 216 208 200 197 197 195 193 194 195 198 201 200 195 191 192 191 189 189 184 180 183 185 183 187 192 179 163 157 160 168 171 175 179 178 181 186 186 188 185 188 206 338 353 356 355 355 356 358 0 0 360 358 356
250 250 250 249 251 252 253 253 254 254 252 250 247 244 243 241 241 238 231 223 217 215 211 207 207 212 214 207 205 208 209 214 210 202 199 197 197 196 197 199 200 203 206 206 201 192 191 190 186 188 189 186 185 185 185 189 191 185 174 159 161 185 192 184 179 177 183 188 194 200 204 216 237 297 330 341 345 350 355 357 358 357 356 353 352
250 251 251 250 251 254 255 255 256 255 253 251 247 243 240 240 239 236 231 223 217 212 204 200 202 205 203 198 199 204 208 212 207 203 202 199 197 198 201 205 207 210 209 205 200 191 187 188 186 186 189 192 192 187 186 189 187 186 186 179 185 203 194 184 182 184 189 191 198 206 213 228 242 277 310 330 341 349 352 354 355 353 351 349 348
250 250 251 252 253 255 257 258 258 257 255 251 246 242 238 237 237 234 231 225 219 211 202 200 200 199 198 198 202 205 207 210 207 205 205 201 200 202 205 209 213 212 206 200 194 189 186 186 186 187 189 192 195 193 190 187 186 187 186 193 213 222 203 199 199 197 195 195 201 207 213 223 236 261 291 319 335 345 347 348 349 347 345 344 344
248 250 251 253 255 257 259 260 260 257 255 250 244 241 238 236 234 231 224 217 215 212 207 205 202 201 202 204 207 207 207 208 205 204 205 204 205 206 205 206 208 207 199 194 192 188 186 187 187 189 192 193 193 195 196 191 186 188 187 194 213 222 217 221 220 211 207 200 199 205 212 218 227 244 271 305 326 339 342 342 342 341 341 340 341
246 250 253 255 257 259 260 260 259 257 255 250 242 238 236 234 230 226 219 211 208 209 212 211 205 202 203 206 208 207 208 208 205 204 205 207 208 206 203 200 200 201 197 193 192 189 188 189 189 190 192 193 192 193 197 197 193 194 195 199 211 218 216 217 215 213 217 208 203 207 210 215 222 228 253 293 317 332 336 337 337 337 338 339 341
245 252 256 258 260 261 259 259 259 258 255 246 238 235 234 230 226 222 216 210 206 207 210 209 205 203 205 212 213 208 207 207 206 205 206 208 207 204 203 200 198 202 203 198 192 191 191 191 191 192 190 190 191 191 193 199 198 200 205 206 212 218 216 213 210 208 210 213 214 210 205 214 222 220 239 281 310 324 328 331 333 334 336 339 343
243 249 254 257 259 260 259 259 259 260 254 240 234 233 231 228 225 220 215 211 208 207 206 205 207 209 213 219 217 209 206 206 206 206 207 208 206 204 204 202 201 205 209 203 195 192 193 193 193 193 190 190 192 190 191 196 198 199 204 207 211 218 220 217 210 208 212 218 220 208 200 212 226 228 246 283 309 318 322 328 331 334 338 342 345